Location: Gradaro
(45.0833°N, 10.8833°E)
Time: 13:54:50
(UTC+00:00)

H-2A R/B - Pass Details

Date: 29 November 2020
Orbit: 529 x 651 km, 98.3° (Epoch: 24 January)

Event Time Altitude Azimuth Distance (km) Brightness Sun altitude
Rises 04:57:13 0° 20° (NNE) 2,702 5.9 -16.4°
Reaches altitude 10° 04:59:26 10° 27° (NNE) 1,796 5.1 -16.0°
Maximum altitude 05:03:07 42° 99° (E) 769 3.6 -15.4°
Drops below altitude 10° 05:06:44 10° 172° (S) 1,772 5.2 -14.8°
Sets 05:08:55 0° 179° (S) 2,660 6.0 -14.4°
